Lake Clear, NY

11:54 AM EDT on July 28, 2016 (GMT -0400)
Adirondack Regional

Weather History for KSLK - December, 2011

Change the Weather History Date:

Wednesday, December 14, 2011

  Actual Average Record
Temperature  
Mean Temperature 33 °F 19 °F  
Max Temperature 37 °F 29 °F 55 °F (2015)
Min Temperature 28 °F 10 °F -29 °F (1976)
Degree Days  
Heating Degree Days 32 46  
Month to date heating degree days 509 600  
Since 1 July heating degree days 2306 2875  
Cooling Degree Days 0 0  
Month to date cooling degree days 0  
Year to date cooling degree days 114  
Moisture  
Dew Point 32 °F    
Average Humidity 91    
Maximum Humidity 100    
Minimum Humidity 82    
Precipitation  
Precipitation 0.01 in 0.07 in 1.38 in (2003)
Month to date precipitation 0.64 1.19  
Year to date precipitation 41.98 36.42  
Sea Level Pressure  
Sea Level Pressure 30.27 in    
Wind  
Wind Speed 2 mph (SSW)    
Max Wind Speed 16 mph    
Max Gust Speed 21 mph    
Visibility 4 miles    
Events Fog , Snow    
T = Trace of Precipitation, MM = Missing Value Source: NWS Daily Summary

Daily Weather History Graph

Daily Weather History Graph

Search for Another Location

Airport or City:

Trip Planner

Search our weather history database for the weather conditions in past years. The results will help you decide how hot, cold, wet, or windy it might be!

Date:

Astronomy

Dec. 14, 2011 Rise Set
Actual Time 7:25 AM EST 4:17 PM EST
Civil Twilight 6:51 AM EST 4:51 PM EST
Nautical Twilight 6:14 AM EST 5:27 PM EST
Astronomical Twilight 5:39 AM EST 6:03 PM EST
Moon 8:42 PM EST (12/14) 10:02 AM EST (12/14)
Length of Visible Light 9h 59m
Length of Day
8h 52m
Waning Gibbous, 83% of the Moon is Illuminated
Dec 14
Waning Gibbous
Dec 17
Last Quarter
Dec 24
New
Jan 1
First Quarter
Jan 9
Full

Hourly Weather History & Observations

Time (EST) Temp. Windchill Dew Point Humidity Pressure Visibility Wind Dir Wind Speed Gust Speed Precip Events Conditions
12:08 AM 32.0 °F - 32.0 °F 100% 30.29 in 0.8 mi Calm Calm - N/A   Overcast
12:51 AM 32.0 °F - 32.0 °F 100% 30.35 in 0.2 mi Calm Calm - N/A Fog Fog
1:51 AM 32.0 °F - 32.0 °F 100% 30.35 in 0.2 mi Calm Calm - 0.00 in Fog , Snow Light Snow
2:09 AM 32.0 °F - 32.0 °F 100% 30.30 in 0.5 mi Calm Calm - 0.00 in Fog , Snow Light Snow
2:34 AM 32.0 °F - 32.0 °F 100% 30.29 in 1.2 mi Calm Calm - 0.00 in   Overcast
2:51 AM 32.0 °F - 32.0 °F 100% 30.35 in 1.5 mi Calm Calm - 0.00 in   Overcast
3:15 AM 32.0 °F - 32.0 °F 100% 30.29 in 0.5 mi Calm Calm - N/A Fog Fog
3:27 AM 32.0 °F - 32.0 °F 100% 30.29 in 0.2 mi Calm Calm - N/A Fog Fog
3:51 AM 32.0 °F - 30.9 °F 96% 30.34 in 0.2 mi Calm Calm - N/A Fog Fog
4:51 AM 33.1 °F - 32.0 °F 96% 30.35 in 0.5 mi Calm Calm - N/A Fog Fog
5:10 AM 32.0 °F 28.7 °F 32.0 °F 100% 30.29 in 1.0 mi WSW 3.5 mph - N/A   Overcast
5:49 AM 33.8 °F - 32.0 °F 93% 30.30 in 0.8 mi Calm Calm - N/A   Overcast
5:51 AM 33.1 °F - 32.0 °F 96% 30.35 in 0.8 mi Calm Calm - N/A   Overcast
6:44 AM 32.0 °F - 30.2 °F 93% 30.31 in 2.0 mi Calm Calm - N/A   Overcast
6:51 AM 32.0 °F - 32.0 °F 100% 30.37 in 1.8 mi Calm Calm - N/A   Overcast
7:02 AM 32.0 °F - 32.0 °F 100% 30.31 in 0.5 mi Calm Calm - N/A Fog Fog
7:24 AM 33.8 °F - 32.0 °F 93% 30.31 in 1.8 mi Calm Calm - N/A   Overcast
7:47 AM 33.8 °F - 32.0 °F 93% 30.31 in 0.2 mi Calm Calm - N/A Fog Fog
7:51 AM 33.1 °F - 32.0 °F 96% 30.37 in 0.2 mi Calm Calm - N/A Fog Fog
8:51 AM 33.1 °F 30.0 °F 33.1 °F 100% 30.36 in 0.5 mi SSW 3.5 mph - N/A Fog Fog
9:27 AM 33.8 °F 30.8 °F 33.8 °F 100% 30.31 in 1.0 mi SSW 3.5 mph - N/A   Overcast
9:40 AM 33.8 °F 30.8 °F 33.8 °F 100% 30.32 in 3.0 mi SSW 3.5 mph - N/A   Overcast
9:51 AM 34.0 °F - 33.1 °F 96% 30.37 in 4.0 mi Calm Calm - N/A   Overcast
10:11 AM 33.8 °F - 33.8 °F 100% 30.31 in 6.0 mi Calm Calm - N/A   Overcast
10:51 AM 34.0 °F 31.0 °F 32.0 °F 92% 30.36 in 9.0 mi WSW 3.5 mph - N/A   Overcast
11:20 AM 35.6 °F 32.8 °F 33.8 °F 93% 30.29 in 8.0 mi SW 3.5 mph - N/A   Overcast
11:51 AM 35.6 °F 32.8 °F 32.0 °F 87% 30.29 in 10.0 mi SW 3.5 mph - N/A   Overcast
12:51 PM 36.0 °F - 32.0 °F 86% 30.32 in 10.0 mi Calm Calm - N/A   Overcast
1:51 PM 36.0 °F 33.3 °F 32.0 °F 86% 30.30 in 10.0 mi South 3.5 mph - N/A   Overcast
2:51 PM 36.0 °F 33.3 °F 32.0 °F 86% 30.29 in 10.0 mi South 3.5 mph - N/A   Overcast
3:51 PM 36.0 °F - 32.0 °F 86% 30.28 in 9.0 mi Calm Calm - N/A   Overcast
4:29 PM 33.8 °F - 30.2 °F 87% 30.22 in 5.0 mi Calm Calm - N/A   Scattered Clouds
4:51 PM 32.0 °F - 30.0 °F 92% 30.28 in 5.0 mi Calm Calm - N/A   Clear
5:18 PM 28.4 °F - 28.4 °F 100% 30.21 in 1.8 mi Calm Calm - N/A   Clear
5:31 PM 28.4 °F - 28.4 °F 100% 30.20 in 3.0 mi Calm Calm - N/A   Clear
5:51 PM 30.0 °F - 28.9 °F 96% 30.25 in 8.0 mi Calm Calm - N/A   Clear
6:51 PM 28.9 °F - 28.0 °F 96% 30.22 in 6.0 mi Calm Calm - N/A   Clear
7:51 PM 28.9 °F - 28.0 °F 96% 30.20 in 5.0 mi Calm Calm - N/A   Overcast
8:51 PM 30.9 °F - 28.9 °F 92% 30.18 in 5.0 mi Calm Calm - N/A   Overcast
9:51 PM 35.1 °F 29.3 °F 32.0 °F 89% 30.12 in 9.0 mi SSW 6.9 mph - N/A   Overcast
10:51 PM 35.1 °F 30.1 °F 30.9 °F 85% 30.10 in 10.0 mi South 5.8 mph - N/A   Overcast
11:21 PM 37.4 °F 30.3 °F 32.0 °F 81% 30.04 in 6.0 mi SSW 10.4 mph - 0.01 in   Overcast
11:51 PM 37.0 °F 29.3 °F 33.1 °F 86% 30.06 in 9.0 mi SSW 11.5 mph 20.7 mph 0.01 in   Overcast
11:58 PM 37.4 °F 29.8 °F 33.8 °F 87% 30.01 in 10.0 mi SSW 11.5 mph - N/A   Overcast